Wind_Speed
18 21 22 23 24 26 28 31 34 35 36 37 39 40 43 45 46 48 50 52 54 55 56 57 58 59 58 58 58 58 56 54 52 50 48 46 44 43 40 38 36 34 32 30
21 24 25 26 27 28 30 32 34 36 37 39 41 43 46 48 50 52 54 56 58 60 61 62 62 63 63 62 62 62 61 59 56 54 52 49 46 44 42 38 35 33 31 29
24 26 28 29 31 33 34 36 38 40 42 43 45 47 49 52 55 57 59 60 62 64 65 66 67 68 69 68 67 66 66 63 61 59 56 53 49 46 43 39 35 32 30 27
28 29 31 33 34 36 38 40 42 43 45 46 48 49 52 56 59 62 65 67 69 70 72 74 75 75 75 74 73 72 70 69 67 64 61 56 51 47 43 39 35 32 28 26
32 34 36 37 39 41 42 44 45 46 47 50 54 56 59 63 67 69 72 74 76 77 79 79 80 80 79 77 76 74 72 70 66 63 59 55 51 47 43 40 35 32 28 25
34 36 39 41 41 42 45 46 47 50 54 58 61 64 66 69 72 74 77 79 80 81 81 81 81 80 78 75 71 66 63 59 56 54 52 50 47 46 43 40 36 32 28 24
34 36 39 41 41 43 46 49 52 56 60 64 67 71 74 76 78 79 80 79 79 78 76 73 70 66 61 57 52 50 47 46 46 46 46 47 47 45 43 40 36 32 28 25
35 37 39 41 43 46 49 53 58 62 66 70 74 77 78 79 78 76 74 71 68 65 60 56 53 50 46 43 41 39 38 39 39 40 41 43 44 44 42 40 37 33 29 25
37 39 42 45 48 52 56 60 65 70 74 78 80 80 78 74 70 65 60 55 51 49 46 43 42 40 38 36 36 37 37 38 39 39 38 38 41 43 43 41 38 34 30 26
39 42 45 49 53 57 62 67 72 76 79 80 79 76 70 62 55 50 46 44 43 41 39 37 36 37 37 36 37 37 38 37 38 37 35 35 39 43 43 40 38 35 31 27
43 46 49 53 58 63 68 72 76 78 77 74 69 62 55 48 44 42 41 40 39 38 36 35 36 37 38 38 39 39 38 37 35 32 31 32 38 43 43 40 38 35 30 28
47 51 54 58 63 69 73 76 78 75 70 63 56 49 44 42 40 40 39 39 39 39 39 39 39 40 40 40 41 39 37 34 32 29 29 31 39 43 44 40 38 36 33 30
51 54 58 63 68 72 75 75 72 66 59 52 45 42 41 40 39 39 40 41 41 41 41 41 41 41 40 40 40 38 34 31 28 27 27 31 39 42 41 39 39 38 35 32
54 58 61 66 71 73 74 71 64 57 49 43 40 39 39 40 41 42 43 43 43 43 43 43 43 41 40 39 38 35 31 28 26 24 25 31 38 40 40 41 41 39 36 34
55 60 65 70 73 73 71 65 57 49 41 37 37 39 41 43 44 45 46 46 46 46 46 45 42 40 39 37 34 31 26 24 23 23 27 32 37 38 40 41 42 40 37 35
58 63 68 73 75 72 67 60 51 42 37 36 38 41 44 46 48 49 49 50 49 48 47 44 41 38 35 32 29 26 23 21 20 23 28 32 36 37 41 42 43 41 38 35
63 67 72 75 75 71 63 54 46 40 38 39 42 45 47 50 51 51 51 51 51 49 46 42 39 35 32 28 24 22 20 19 20 24 28 33 36 36 40 42 43 40 37 35
66 71 74 75 73 67 57 49 43 40 40 42 46 49 51 52 53 53 51 51 49 45 42 38 34 30 25 21 18 18 18 20 22 26 30 34 35 37 41 42 41 39 37 36
68 71 73 72 68 62 54 46 42 40 42 45 49 51 52 53 53 53 51 49 45 41 37 33 28 23 18 15 14 16 20 22 25 29 31 33 36 38 40 41 40 39 36 34
69 72 72 69 63 57 50 44 41 41 44 47 50 51 52 52 52 50 48 45 41 38 33 26 21 15 11 11 14 18 21 25 28 31 33 35 38 39 40 39 39 38 35 33
70 72 71 67 60 53 47 43 41 41 44 48 50 51 51 50 49 47 44 41 37 32 27 20 14 7 4 10 16 21 25 29 31 32 34 36 38 39 39 39 38 36 33 31
70 71 69 65 57 49 44 41 40 42 44 47 49 49 49 48 47 45 41 38 33 28 23 17 10 4 7 15 22 26 29 32 33 33 34 36 37 37 37 36 35 34 32 30
69 70 68 62 54 47 42 40 40 41 43 46 47 48 47 46 45 42 39 34 30 25 21 16 11 10 15 22 26 29 33 35 34 34 35 35 36 36 35 34 34 32 31 29
68 68 65 60 52 46 40 37 38 40 42 44 45 44 43 43 41 39 37 32 28 24 20 16 12 15 20 25 29 32 35 35 34 34 34 34 34 34 32 31 32 31 29 28
67 66 63 57 49 43 39 36 36 38 39 41 41 40 40 40 39 38 36 31 28 25 21 17 16 19 24 28 32 34 34 34 33 33 33 32 31 30 29 27 27 27 26 25
66 65 61 55 48 42 38 36 36 37 38 39 38 37 37 37 35 34 34 31 29 26 22 21 21 23 27 30 33 34 33 32 31 30 30 28 27 27 26 24 23 23 23 22
64 63 58 50 44 40 36 34 34 35 37 38 37 35 33 32 31 30 29 27 25 23 21 20 20 23 26 28 29 30 30 30 29 28 26 24 23 23 22 22 21 21 20 20
Wind_Direction
313 309 306 303 298 294 293 294 294 294 293 292 292 291 290 290 289 289 289 289 288 288 289 289 289 290 290 292 294 294 294 294 294 294 295 296 298 299 300 302 305 306 305 303
313 308 306 304 302 299 296 294 294 294 294 293 291 290 289 289 288 288 288 287 287 286 286 286 286 287 287 287 289 290 290 290 290 290 290 291 292 292 293 295 297 300 300 300
312 309 306 306 305 301 299 298 298 298 297 295 294 293 293 292 291 290 289 288 287 285 284 283 283 284 284 285 286 286 286 286 286 285 285 285 285 285 286 287 289 291 292 293
315 313 310 309 306 305 304 304 302 301 300 299 298 296 294 292 290 288 287 286 284 283 283 283 284 284 284 285 285 284 284 284 283 282 281 279 278 276 276 277 279 281 282 284
317 316 314 313 312 311 309 308 307 306 303 300 298 296 293 291 290 289 288 287 287 286 286 286 286 285 285 285 284 284 283 282 280 277 275 272 270 267 265 266 268 270 271 272
317 315 314 314 314 313 311 308 307 304 302 300 299 298 296 294 293 291 291 290 289 289 288 288 287 287 287 286 286 285 283 281 277 274 270 265 261 258 255 255 257 259 260 260
315 314 313 315 315 313 309 308 307 305 305 304 302 301 299 297 296 295 294 293 293 292 291 291 291 290 289 288 287 284 282 280 276 271 268 262 253 249 245 245 247 249 249 249
318 317 316 317 315 313 312 311 310 309 307 306 304 303 301 300 299 299 298 297 296 296 295 294 293 292 292 290 287 285 284 282 280 275 271 262 247 239 235 236 239 239 239 238
322 320 320 319 318 317 316 315 313 312 310 309 307 306 306 305 304 303 302 301 299 298 297 295 293 292 292 290 288 287 286 285 284 279 273 261 241 228 223 227 230 230 229 228
324 323 322 321 321 319 318 317 315 313 312 310 309 310 310 310 309 307 306 305 304 301 299 297 295 293 291 290 289 289 289 288 287 280 270 254 234 221 218 221 221 221 220 219
326 326 324 323 322 321 319 318 315 314 313 313 313 314 314 313 313 311 310 308 306 304 301 299 297 295 293 291 291 291 291 290 287 277 265 246 227 215 212 214 212 210 212 211
327 327 326 325 324 322 320 318 316 316 316 317 317 317 317 317 317 316 314 311 308 305 303 301 299 297 295 292 290 291 292 290 283 271 260 238 219 209 208 207 201 200 204 204
329 329 327 326 324 322 321 320 320 321 321 322 321 320 320 320 320 318 317 314 310 307 305 303 301 297 294 292 290 289 288 285 277 267 251 228 211 204 202 199 195 196 198 200
331 329 327 326 325 325 325 325 325 326 325 324 323 323 322 322 321 319 317 315 312 309 307 304 300 297 293 291 290 287 283 278 269 258 233 216 205 200 196 193 192 193 195 197
330 329 329 329 329 329 329 329 330 330 328 327 326 325 324 322 322 320 318 316 314 311 308 304 300 296 292 289 287 283 276 267 259 240 220 208 200 197 192 190 189 190 193 195
332 332 332 333 333 333 333 333 333 333 331 329 328 327 326 325 324 323 320 318 315 313 309 306 302 297 292 288 282 275 265 255 240 221 207 200 196 192 190 188 186 187 191 192
336 336 336 336 336 336 336 336 336 335 332 331 330 330 329 327 326 324 323 320 318 315 311 307 303 297 292 284 275 264 250 233 215 202 197 194 192 189 187 184 184 185 188 189
338 337 337 337 338 338 338 337 336 335 333 332 332 332 331 329 328 327 326 324 321 318 314 309 304 298 290 276 262 245 223 207 197 189 188 188 187 185 183 182 184 185 186 189
338 338 338 339 339 338 337 337 336 335 334 333 334 334 334 333 332 331 329 328 326 322 318 313 308 300 285 261 237 218 202 192 184 180 181 182 182 181 180 181 182 183 185 188
339 339 340 340 340 338 337 337 336 335 335 336 337 337 337 337 336 335 335 334 331 329 327 321 314 303 275 235 208 194 185 178 173 172 173 175 176 177 178 180 181 183 186 187
340 340 341 341 341 339 337 337 336 337 338 339 340 341 341 341 341 341 340 340 340 339 339 337 332 316 239 191 177 172 168 166 165 166 168 170 172 175 177 179 182 184 186 187
341 341 342 342 341 340 339 338 338 339 340 341 342 343 345 346 348 349 349 350 351 353 356 0 10 50 144 154 156 157 158 158 159 162 164 167 170 173 176 179 181 183 186 187
341 341 342 342 342 342 341 340 339 341 342 343 345 346 349 351 352 354 358 360 2 7 15 25 47 93 129 140 145 149 152 152 154 157 161 165 169 173 175 179 181 183 186 190
341 342 343 343 343 342 342 341 341 343 345 346 348 349 353 356 358 1 7 10 12 19 26 39 69 104 126 134 139 143 146 148 151 155 159 162 167 171 174 178 181 184 188 193
341 342 343 343 343 343 342 342 343 345 348 350 352 354 357 1 4 8 13 18 24 33 44 59 83 110 123 129 135 140 142 145 149 154 158 162 166 169 173 177 181 185 189 194
341 343 343 343 343 344 343 342 344 346 350 354 356 358 2 6 10 13 18 25 35 45 57 72 89 107 120 127 133 136 139 143 147 152 156 160 165 169 173 179 184 189 193 196
342 343 343 343 342 342 341 342 344 347 351 355 359 1 5 9 14 18 23 31 40 50 61 75 92 110 121 127 131 134 138 141 144 148 152 157 163 169 175 181 187 191 194 198
Height
5835 5832 5829 5826 5824 5821 5817 5813 5809 5805 5801 5797 5793 5788 5783 5779 5775 5770 5766 5762 5757 5753 5748 5744 5740 5737 5733 5730 5727 5724 5721 5719 5717 5715 5713 5712 5710 5707 5705 5701 5698 5694 5691 5687
5831 5827 5824 5820 5817 5814 5810 5806 5802 5797 5793 5788 5783 5778 5773 5768 5763 5757 5752 5747 5742 5737 5732 5728 5724 5721 5718 5714 5711 5708 5706 5704 5702 5701 5700 5699 5698 5696 5695 5692 5690 5687 5684 5681
5827 5822 5818 5815 5811 5807 5803 5798 5793 5788 5783 5777 5771 5766 5760 5754 5748 5741 5736 5730 5725 5719 5715 5710 5705 5702 5699 5695 5693 5690 5688 5686 5685 5684 5684 5684 5684 5684 5683 5682 5681 5679 5677 5674
5820 5817 5812 5811 5804 5799 5794 5788 5782 5776 5770 5764 5758 5753 5746 5739 5732 5725 5719 5712 5706 5700 5694 5689 5684 5680 5677 5674 5671 5669 5667 5665 5664 5664 5665 5666 5668 5669 5670 5671 5670 5670 5669 5668
5813 5808 5804 5799 5794 5788 5782 5777 5770 5764 5758 5751 5745 5739 5733 5723 5715 5707 5699 5691 5684 5677 5671 5665 5660 5655 5652 5650 5647 5644 5642 5641 5640 5641 5643 5646 5650 5653 5655 5657 5659 5660 5660 5660
5807 5801 5796 5792 5785 5778 5773 5766 5760 5753 5746 5738 5730 5722 5716 5705 5695 5685 5676 5668 5659 5652 5645 5639 5633 5628 5626 5624 5621 5619 5617 5617 5617 5618 5621 5625 5630 5635 5639 5643 5647 5649 5651 5652
5801 5795 5789 5783 5777 5771 5764 5758 5749 5739 5731 5721 5711 5701 5691 5680 5669 5659 5649 5640 5632 5625 5619 5613 5608 5604 5602 5600 5598 5597 5596 5596 5596 5597 5600 5604 5610 5617 5622 5628 5633 5638 5641 5643
5795 5788 5784 5775 5768 5762 5754 5744 5734 5724 5713 5702 5690 5678 5666 5655 5644 5634 5624 5615 5607 5600 5596 5591 5587 5583 5583 5582 5580 5579 5579 5578 5578 5578 5580 5584 5590 5597 5606 5613 5620 5626 5630 5634
5787 5782 5773 5765 5757 5749 5739 5729 5718 5706 5694 5680 5667 5654 5642 5631 5621 5611 5603 5596 5589 5584 5580 5577 5573 5570 5568 5568 5566 5565 5564 5563 5562 5561 5562 5565 5571 5579 5589 5598 5606 5614 5620 5625
5779 5772 5765 5756 5747 5737 5725 5714 5701 5687 5673 5658 5644 5632 5621 5611 5602 5594 5588 5582 5576 5571 5567 5565 5561 5558 5556 5554 5553 5551 5550 5548 5546 5545 5545 5548 5554 5564 5573 5583 5594 5603 5611 5617
5771 5764 5756 5746 5735 5724 5711 5698 5683 5669 5653 5638 5624 5614 5605 5597 5590 5583 5577 5571 5566 5561 5556 5553 5550 5547 5544 5541 5539 5537 5535 5533 5531 5530 5531 5534 5540 5550 5560 5571 5583 5594 5602 5609
5763 5754 5744 5734 5722 5709 5696 5681 5665 5650 5636 5624 5610 5600 5593 5586 5580 5574 5567 5562 5556 5551 5546 5542 5538 5534 5531 5527 5525 5523 5522 5520 5519 5518 5520 5523 5529 5539 5549 5561 5572 5584 5594 5602
5753 5743 5733 5722 5709 5695 5680 5664 5648 5633 5619 5609 5601 5592 5584 5578 5571 5565 5558 5552 5545 5540 5534 5530 5525 5521 5517 5513 5511 5509 5508 5508 5507 5507 5509 5513 5520 5530 5541 5553 5564 5575 5586 5594
5743 5733 5723 5711 5696 5680 5663 5647 5632 5620 5609 5599 5591 5584 5577 5570 5563 5556 5548 5541 5534 5528 5522 5516 5511 5506 5502 5499 5497 5496 5496 5496 5497 5497 5500 5506 5514 5524 5534 5546 5557 5569 5579 5588
5735 5724 5711 5697 5681 5664 5648 5632 5620 5609 5600 5592 5585 5577 5569 5561 5554 5546 5537 5529 5522 5514 5508 5501 5495 5491 5487 5484 5483 5483 5484 5486 5487 5489 5494 5501 5510 5519 5530 5541 5553 5564 5575 5584
5726 5713 5698 5682 5666 5650 5634 5620 5609 5600 5592 5585 5578 5570 5562 5552 5543 5534 5525 5516 5507 5499 5492 5485 5480 5476 5472 5470 5470 5471 5473 5476 5479 5483 5489 5497 5507 5516 5527 5538 5549 5560 5571 5580
5713 5700 5686 5670 5654 5638 5624 5611 5601 5593 5586 5579 5571 5562 5553 5543 5533 5523 5513 5502 5492 5483 5476 5469 5464 5460 5458 5457 5458 5461 5464 5468 5472 5479 5486 5495 5504 5514 5524 5535 5546 5557 5568 5578
5700 5687 5672 5656 5641 5627 5615 5605 5596 5588 5580 5572 5564 5554 5544 5533 5521 5510 5499 5489 5479 5469 5461 5454 5449 5446 5445 5445 5448 5452 5457 5462 5469 5476 5485 5494 5503 5513 5523 5534 5545 5555 5565 5574
5692 5678 5663 5647 5632 5618 5608 5599 5591 5583 5575 5566 5557 5546 5535 5523 5511 5499 5488 5476 5466 5457 5449 5442 5437 5435 5435 5437 5441 5446 5452 5459 5467 5476 5485 5494 5503 5513 5523 5534 5544 5554 5564 5573
5684 5670 5655 5640 5626 5613 5602 5594 5586 5579 5570 5560 5550 5539 5528 5516 5504 5491 5479 5468 5456 5447 5439 5433 5429 5428 5428 5431 5436 5443 5450 5458 5467 5476 5486 5495 5505 5515 5524 5534 5544 5554 5563 5572
5677 5662 5648 5634 5621 5609 5598 5590 5582 5574 5566 5556 5545 5533 5522 5510 5498 5485 5473 5463 5452 5443 5435 5429 5425 5424 5425 5429 5435 5442 5450 5459 5469 5478 5488 5498 5507 5517 5526 5536 5546 5555 5563 5571
5670 5656 5641 5628 5616 5605 5595 5587 5579 5571 5562 5552 5542 5530 5519 5507 5495 5484 5471 5460 5451 5442 5435 5429 5426 5426 5427 5431 5438 5445 5454 5463 5473 5482 5492 5501 5510 5520 5529 5538 5547 5555 5563 5571
5663 5649 5635 5623 5611 5601 5592 5584 5576 5569 5560 5550 5539 5528 5517 5505 5494 5483 5473 5463 5453 5445 5439 5435 5432 5432 5434 5438 5444 5452 5460 5469 5479 5488 5497 5506 5514 5523 5532 5540 5548 5556 5564 5570
5657 5644 5631 5618 5607 5598 5590 5582 5575 5567 5559 5549 5538 5527 5517 5507 5497 5486 5476 5467 5459 5452 5446 5443 5441 5442 5444 5448 5454 5461 5469 5478 5486 5495 5503 5511 5519 5527 5535 5542 5550 5557 5564 5570
5652 5639 5626 5615 5605 5596 5587 5580 5573 5566 5558 5550 5540 5529 5519 5509 5500 5491 5482 5473 5467 5461 5456 5453 5452 5453 5456 5460 5466 5472 5479 5487 5495 5502 5510 5517 5524 5532 5539 5545 5552 5558 5563 5569
5647 5634 5621 5610 5600 5592 5584 5578 5571 5564 5557 5549 5541 5531 5523 5514 5506 5498 5490 5483 5477 5473 5469 5467 5466 5467 5469 5473 5478 5484 5490 5497 5503 5510 5516 5523 5529 5535 5541 5547 5553 5558 5563 5568
5642 5630 5619 5608 5599 5591 5583 5576 5570 5563 5556 5548 5541 5533 5526 5520 5513 5506 5500 5494 5489 5486 5483 5481 5481 5482 5484 5487 5491 5496 5501 5506 5511 5517 5523 5528 5534 5539 5544 5549 5554 5559 5563 5567